Cosmos 1674 Rocket - Orbit

View from above orbital plane
View from above orbital plane
View from above satellite
View from above satellite

Ground track
Ground track

The orbit data is extracted from the following two-line orbital elements,

1 15945U 85069B   13168.49460838  .00000177  00000-0  18681-4 0  3642
2 15945 082.5283 060.2584 0021219 063.3231 352.3934 14.83016410504468
Epoch (UTC): 17 June 2013 11:52:14
Eccentricity: 0.0021219
inclination: 82.5283°
perigee height: 605 km
apogee height: 634 km
right ascension of ascending node: 60.2584°
argument of perigee: 63.3231°
revolutions per day: 14.83016410
mean anomaly at epoch: 352.3934°
orbit number at epoch: 50446

The dashed part of the orbit path shows where the satellite is in the earth's shadow,  

Developed and maintained by Chris Peat, Heavens-Above GmbH. Please read the updated FAQ before sending e-mail. Imprint. DLR